Location: Detroit
(42.3310°N, 83.0460°W)
Time: 08:57:42
(UTC-04:00)

Explorer 11/Cluster Stage 4 - Pass Details

Date: 07 February 2023
Orbit: 466 x 1241 km, 28.8° (Epoch: 02 April)

Event Time Altitude Azimuth Distance (km) Brightness Sun altitude
Exits shadow 04:05:00 21° 142° (SE) 2,356 9.1 -39.8°
Drops below altitude 10° 04:08:49 10° 116° (ESE) 3,136 10.1 -39.1°
Sets 04:12:28 0° 103° (ESE) 4,152 11.0 -38.4°
